When you browse on this site, cookies collect data to enhance your experience and personalize the content and advertising you see.
Visit our Privacy Policy to learn more. By continuing to use the site, you agree to this use of cookies and data.

Hourly Weather Veliko Tarnovo

Today, 25 September, Friday

Time Temperature Precipitation Wind Pressure Humidity
00:00 +20°C° 0 mm 1 mps 736 mmHg 66%
01:00 +19°C° 0 mm 1 mps 736 mmHg 67%
02:00 +19°C° 0 mm 1 mps 735 mmHg 69%
03:00 +19°C° 0 mm 1 mps 735 mmHg 69%
04:00 +19°C° 0 mm 1 mps 735 mmHg 69%
05:00 +18°C° 0 mm 1 mps 735 mmHg 69%
06:00 +20°C° 0 mm 1 mps 735 mmHg 64%
07:00 +21°C° 0 mm 1 mps 735 mmHg 59%
08:00 +23°C° 0 mm 1 mps 735 mmHg 53%
09:00 +25°C° 0 mm 1 mps 735 mmHg 47%
10:00 +27°C° 0 mm 2 mps 735 mmHg 40%
11:00 +30°C° 0 mm 2 mps 735 mmHg 33%
12:00 +30°C° 0 mm 3 mps 734 mmHg 32%
13:00 +31°C° 0 mm 3 mps 733 mmHg 30%
14:00 +33°C° 0 mm 4 mps 733 mmHg 28%
15:00 +32°C° 0 mm 4 mps 732 mmHg 30%
16:00 +30°C° 0 mm 4 mps 732 mmHg 32%
17:00 +30°C° 0 mm 4 mps 731 mmHg 34%
18:00 +27°C° 0 mm 3 mps 731 mmHg 41%
19:00 +25°C° 0 mm 3 mps 731 mmHg 47%
20:00 +22°C° 0 mm 3 mps 731 mmHg 53%
21:00 +22°C° 0 mm 3 mps 730 mmHg 57%
22:00 +21°C° 0 mm 3 mps 730 mmHg 61%
23:00 +21°C° 0 mm 3 mps 730 mmHg 65%

Tomorrow, 26 September, Saturday

Time Temperature Precipitation Wind Pressure Humidity
00:00 +20°C° 0 mm 3 mps 730 mmHg 67%
01:00 +20°C° 0 mm 3 mps 729 mmHg 68%
02:00 +19°C° 0 mm 3 mps 729 mmHg 69%
03:00 +19°C° 0 mm 3 mps 728 mmHg 70%
04:00 +19°C° 0 mm 3 mps 728 mmHg 71%
05:00 +19°C° 0 mm 3 mps 727 mmHg 72%
06:00 +20°C° 0 mm 3 mps 727 mmHg 67%
07:00 +21°C° 0 mm 4 mps 727 mmHg 63%
08:00 +23°C° 0 mm 4 mps 726 mmHg 59%
09:00 +25°C° 0 mm 5 mps 726 mmHg 54%
10:00 +27°C° 0 mm 6 mps 726 mmHg 50%
11:00 +28°C° 0 mm 7 mps 726 mmHg 45%
12:00 +28°C° 0 mm 7 mps 726 mmHg 43%
13:00 +28°C° 0 mm 8 mps 725 mmHg 41%
14:00 +28°C° 0 mm 8 mps 725 mmHg 38%
15:00 +27°C° 0 mm 8 mps 725 mmHg 41%
16:00 +26°C° 0 mm 8 mps 725 mmHg 44%
17:00 +26°C° 0 mm 7 mps 725 mmHg 47%
18:00 +23°C° 0.7 mm 6 mps 725 mmHg 60%
19:00 +20°C° 0.7 mm 4 mps 725 mmHg 73%
20:00 +18°C° 0.7 mm 3 mps 726 mmHg 86%
21:00 +17°C° 0.3 mm 2 mps 726 mmHg 84%
22:00 +18°C° 0.3 mm 1 mps 727 mmHg 83%
23:00 +18°C° 0.3 mm 1 mps 727 mmHg 82%

Day after tomorrow, 27 September, Sunday

Time Temperature Precipitation Wind Pressure Humidity
00:00 +16°C° 0.1 mm 1 mps 728 mmHg 82%
01:00 +16°C° 0.1 mm 1 mps 728 mmHg 82%
02:00 +15°C° 0.1 mm 1 mps 729 mmHg 82%
03:00 +15°C° 0 mm 1 mps 729 mmHg 83%
04:00 +14°C° 0 mm 1 mps 730 mmHg 83%
05:00 +13°C° 0 mm 1 mps 730 mmHg 84%
06:00 +14°C° 0 mm 1 mps 731 mmHg 78%
07:00 +16°C° 0 mm 1 mps 731 mmHg 72%
08:00 +18°C° 0 mm 1 mps 732 mmHg 66%
09:00 +20°C° 0 mm 1 mps 732 mmHg 53%
10:00 +22°C° 0 mm 1 mps 733 mmHg 40%
11:00 +25°C° 0 mm 1 mps 733 mmHg 27%
12:00 +25°C° 0 mm 2 mps 733 mmHg 26%
13:00 +26°C° 0 mm 3 mps 733 mmHg 25%
14:00 +27°C° 0 mm 4 mps 733 mmHg 24%
15:00 +27°C° 0 mm 3 mps 733 mmHg 25%
16:00 +26°C° 0 mm 3 mps 733 mmHg 26%
17:00 +26°C° 0 mm 3 mps 733 mmHg 27%
18:00 +24°C° 0 mm 3 mps 734 mmHg 32%
19:00 +21°C° 0 mm 3 mps 734 mmHg 36%
20:00 +19°C° 0 mm 3 mps 735 mmHg 41%
21:00 +18°C° 0 mm 3 mps 735 mmHg 44%
22:00 +17°C° 0 mm 2 mps 735 mmHg 48%
23:00 +15°C° 0 mm 1 mps 736 mmHg 52%

28 September, Monday

Time Temperature Precipitation Wind Pressure Humidity
00:00 +15°C° 0 mm 1 mps 736 mmHg 53%
01:00 +15°C° 0 mm 1 mps 736 mmHg 55%
02:00 +13°C° 0 mm 0 mps 737 mmHg 57%
03:00 +14°C° 0 mm 1 mps 737 mmHg 57%
04:00 +14°C° 0 mm 1 mps 737 mmHg 58%
05:00 +14°C° 0 mm 1 mps 737 mmHg 59%
06:00 +15°C° 0 mm 1 mps 738 mmHg 55%
07:00 +18°C° 0 mm 1 mps 738 mmHg 51%
08:00 +19°C° 0 mm 1 mps 738 mmHg 47%
09:00 +22°C° 0 mm 1 mps 738 mmHg 43%
10:00 +24°C° 0 mm 2 mps 738 mmHg 38%
11:00 +26°C° 0 mm 3 mps 738 mmHg 34%
12:00 +27°C° 0 mm 3 mps 738 mmHg 32%
13:00 +28°C° 0 mm 4 mps 737 mmHg 31%
14:00 +29°C° 0 mm 5 mps 737 mmHg 29%
15:00 +29°C° 0 mm 5 mps 736 mmHg 31%
16:00 +28°C° 0 mm 5 mps 736 mmHg 32%
17:00 +28°C° 0 mm 5 mps 735 mmHg 33%
18:00 +26°C° 0 mm 5 mps 735 mmHg 40%
19:00 +23°C° 0 mm 5 mps 735 mmHg 47%
20:00 +22°C° 0 mm 5 mps 735 mmHg 54%
21:00 +20°C° 0 mm 4 mps 735 mmHg 59%
22:00 +19°C° 0 mm 3 mps 734 mmHg 65%
23:00 +18°C° 0 mm 2 mps 734 mmHg 71%

29 September, Tuesday

Time Temperature Precipitation Wind Pressure Humidity
00:00 +18°C° 0 mm 3 mps 734 mmHg 73%
01:00 +17°C° 0 mm 3 mps 734 mmHg 74%
02:00 +16°C° 0 mm 3 mps 734 mmHg 76%
03:00 +16°C° 0.3 mm 3 mps 734 mmHg 77%
04:00 +16°C° 0.3 mm 3 mps 734 mmHg 78%
05:00 +15°C° 0.3 mm 4 mps 733 mmHg 79%
06:00 +16°C° 0.9 mm 3 mps 734 mmHg 80%
07:00 +16°C° 0.9 mm 2 mps 734 mmHg 80%
08:00 +16°C° 0.9 mm 2 mps 734 mmHg 81%
09:00 +17°C° 0 mm 3 mps 734 mmHg 77%
10:00 +17°C° 0 mm 5 mps 734 mmHg 72%
11:00 +18°C° 0 mm 7 mps 734 mmHg 68%
12:00 +20°C° 0.1 mm 7 mps 734 mmHg 61%
13:00 +21°C° 0.1 mm 7 mps 734 mmHg 54%
14:00 +22°C° 0.1 mm 7 mps 734 mmHg 47%
15:00 +21°C° 0.1 mm 7 mps 734 mmHg 48%
16:00 +20°C° 0.1 mm 8 mps 735 mmHg 50%
17:00 +20°C° 0.1 mm 8 mps 735 mmHg 51%
18:00 +18°C° 0 mm 8 mps 735 mmHg 54%
19:00 +17°C° 0 mm 7 mps 735 mmHg 57%
20:00 +16°C° 0 mm 7 mps 736 mmHg 59%
21:00 +15°C° 0 mm 6 mps 736 mmHg 62%
22:00 +15°C° 0 mm 6 mps 736 mmHg 64%
23:00 +14°C° 0 mm 5 mps 736 mmHg 67%

30 September, Wednesday

Time Temperature Precipitation Wind Pressure Humidity
00:00 +14°C° 0 mm 5 mps 736 mmHg 68%
01:00 +14°C° 0 mm 5 mps 736 mmHg 70%
02:00 +13°C° 0 mm 5 mps 736 mmHg 71%
03:00 +13°C° 0 mm 4 mps 736 mmHg 71%
04:00 +13°C° 0 mm 4 mps 736 mmHg 71%
05:00 +13°C° 0 mm 3 mps 736 mmHg 71%
06:00 +13°C° 0 mm 4 mps 736 mmHg 67%
07:00 +14°C° 0 mm 5 mps 736 mmHg 63%
08:00 +15°C° 0 mm 6 mps 736 mmHg 59%
09:00 +16°C° 0 mm 6 mps 736 mmHg 53%
10:00 +19°C° 0 mm 6 mps 736 mmHg 47%
11:00 +20°C° 0 mm 6 mps 736 mmHg 42%
12:00 +21°C° 0 mm 6 mps 736 mmHg 39%
13:00 +22°C° 0 mm 6 mps 736 mmHg 36%
14:00 +23°C° 0 mm 6 mps 735 mmHg 33%
15:00 +22°C° 0 mm 5 mps 735 mmHg 34%
16:00 +21°C° 0 mm 4 mps 735 mmHg 35%
17:00 +21°C° 0 mm 4 mps 734 mmHg 36%
18:00 +19°C° 0 mm 3 mps 735 mmHg 41%
19:00 +17°C° 0 mm 2 mps 735 mmHg 46%
20:00 +15°C° 0 mm 1 mps 735 mmHg 51%
21:00 +15°C° 0 mm 1 mps 735 mmHg 52%
22:00 +15°C° 0 mm 1 mps 735 mmHg 54%
23:00 +14°C° 0 mm 1 mps 735 mmHg 56%
Show more